General Aviation Weather

Text Reports

Enter one or more of the following location identifiers separated by a space:

Zip Code, Four-Character ICAO or Three-Character IATA airport codes.

METAR - Aviation Routine Weather Report
KREO - Rome, Oregon
Updated at 11:52 AM GMT on May 23, 2015 (4:52 AM PDT):
METAR KREO 231152Z AUTO 18003KT 11/09 A2994 RMK AO1 SLP124 70007 T01110094 10128 20111 50002
TAF - Terminal Area Forecast
KREO - Rome, Oregon
Updated at 11:52 AM GMT on May 23, 2015 (4:52 AM PDT):
No TAF is currently available for this location.
Decoded:
No decoded TAF is available.
PIREP - Pilot Weather Report
KREO - Rome, Oregon
Updated at 11:52 AM GMT on May 23, 2015 (4:52 AM PDT):
No PIREP is currently available for this location.
AIRMET - Airmens Meteorological Information
KREO - Rome, Oregon
Updated at 11:52 AM GMT on May 23, 2015 (4:52 AM PDT):
No AIRMET is currently available for this location.
SIGMET - Significant Meteorological Information
KREO - Rome, Oregon
Updated at 11:52 AM GMT on May 23, 2015 (4:52 AM PDT):
No SIGMET is currently available for this location.
NOTAM - Notice to Airmen
KREO - Rome, Oregon
Updated at 11:52 AM GMT on May 23, 2015 (4:52 AM PDT):
No NOTAM is currently available for this location.
Forecast Area
KREO - Rome, Oregon
Updated at 11:52 AM GMT on May 23, 2015 (4:52 AM PDT):
No NOTAM is currently available for this location.
Aviation Weather Maps